User: anonymous   Login
Location: Domont
(49.0278°N, 2.3264°E)
Time: 09:17:55
(UTC+00:00)
Language:

AO-92 - Orbit

View from above orbital plane
View from above orbital plane
View from above satellite
View from above satellite

Ground track
Ground track

The orbit data is extracted from the following two-line orbital elements,

1 43137U 18004AC  22179.74080474  .00005505  00000-0  19454-3 0  9997
2 43137  97.3689 254.7962 0006385 332.0503  28.0393 15.29588318248071
Epoch (UTC): 28 June 2022 17:46:45
Eccentricity: 0.0006385
inclination: 97.3689°
perigee height: 472 km
apogee height: 481 km
right ascension of ascending node: 254.7962°
argument of perigee: 332.0503°
revolutions per day: 15.29588318
mean anomaly at epoch: 28.0393°
orbit number at epoch: 24807

The dashed part of the orbit path shows where the satellite is in the earth's shadow,  

DLR